Walla Walla, WA
on Monday, December 3, 2012

Monday
Previous Day Next Day
Daily Summary
 ActualAverage (KPDT)Record (KPDT)
Temperature
Mean Temperature °F 35°F  
Max Temperature 57°F 42°F 64°F (1939)
Min Temperature 48°F 29°F 10°F (2013)
Degree Days
Heating Degree Days 12 30  
Month to date heating degree days 88  
Since 1 July heating degree days 1341  
Cooling Degree Days 0 0  
Month to date cooling degree days 0  
Year to date cooling degree days 636  
Growing Degree Days2 (Base °F )  
Moisture
Dew Point 32°F   
Average Humidity 46    
Maximum Humidity 58    
Minimum Humidity 32    
Precipitation
Precipitation 0.00 in 0.05 in 0.58 in (1947)
Month to date precipitation 0.16  
Year to date precipitation 11.35  
Snow
Snow 0.00 in 0.10 in 0.60 in (1971)
Month to date snowfall 0.4  
Year to date snowfall 9.6  
Since 1 July snowfall 1.9  
Snow Depth in   
Wind
Wind Speed 11 mph   
Max Wind Speed 18 mph   
Max Gust Speed 30 mph   
Visibility 10 miles   
Events     

Key: T is trace of precipitation, MM is missing value
Source: NWS Daily Summary
Time(PST)TemperatureDew PointHumidity Pressure Visibility Wind DirectionWind SpeedGust SpeedPrecipitationEvents Conditions
12:53 AM 50.0°F 32.0°F 50% 29.92 in 10.0 miles South 10.4 mph - N/A   Overcast
1:53 AM 51.1°F 30.9°F 46% 29.92 in 10.0 miles South 13.8 mph - N/A   Overcast
2:53 AM 51.1°F 30.9°F 46% 29.93 in 10.0 miles South 16.1 mph - N/A   Mostly Cloudy
3:53 AM 52.0°F 30.9°F 45% 29.95 in 10.0 miles SSW 10.4 mph - N/A   Overcast
4:53 AM 51.1°F 32.0°F 48% 29.98 in 10.0 miles SSW 11.5 mph - 0.00 in   Overcast
5:53 AM 50.0°F 33.1°F 52% 30.00 in 10.0 miles WSW 10.4 mph 20.7 mph N/A   Mostly Cloudy
7:53 AM 48.0°F 34.0°F 58% 30.02 in 10.0 miles South 9.2 mph - N/A   Overcast
8:53 AM 50.0°F 33.1°F 52% 30.04 in 10.0 miles SSW 9.2 mph - N/A   Overcast
9:53 AM 51.1°F 34.0°F 52% 30.07 in 10.0 miles SSW 8.1 mph - N/A   Overcast
10:53 AM 53.1°F 34.0°F 48% 30.07 in 10.0 miles SSW 9.2 mph - N/A   Overcast
11:53 AM 54.0°F 34.0°F 47% 30.05 in 10.0 miles SSW 10.4 mph - 0.00 in   Overcast
12:53 PM 57.0°F 34.0°F 42% 30.05 in 10.0 miles SSW 12.7 mph 23.0 mph N/A   Overcast
1:53 PM 55.9°F 35.1°F 45% 30.06 in 10.0 miles SSW 10.4 mph - N/A   Overcast
2:53 PM 54.0°F 36.0°F 51% 30.06 in 10.0 miles South 8.1 mph - N/A   Overcast
3:53 PM 53.1°F 35.1°F 50% 30.07 in 10.0 miles South 4.6 mph - N/A   Overcast
4:53 PM 54.0°F 33.1°F 45% 30.06 in 10.0 miles SSE 9.2 mph - N/A   Overcast
5:53 PM 54.0°F 32.0°F 43% 30.05 in 10.0 miles SSE 13.8 mph - N/A   Scattered Clouds
6:53 PM 53.1°F 32.0°F 45% 30.03 in 10.0 miles SE 9.2 mph - N/A   Clear
7:53 PM 53.1°F 30.9°F 43% 30.01 in 10.0 miles SSE 11.5 mph 21.9 mph N/A   Clear
8:53 PM 54.0°F 30.9°F 41% 29.97 in 10.0 miles SSE 18.4 mph 29.9 mph N/A   Clear
10:53 PM 55.0°F 28.9°F 37% 29.88 in 10.0 miles SSE 17.3 mph - N/A   Clear
11:53 PM 57.0°F 27.0°F 32% 29.84 in 10.0 miles South 17.3 mph 29.9 mph N/A   Mostly Cloudy
Moon Phase
Dec. 03 Dec. 06 Dec. 13 Dec. 20 Dec. 28
Sunrise:07:17 AM (PST) Moon Rise:09:09 PM (PST)12/3
Sunset:04:08 PM (PST) Moon Set:10:35 AM (PST)12/3

Copyright © 2014 The Weather Underground, Inc.